Location: Alafon
(8.4500°N, 4.2333°E)
Time: 03:51:45
(UTC+00:00)

Vanguard 2 - Visible Passes

Search period start: 06 August 2021 00:00
Search period end: 16 August 2021 00:00
Orbit: 552 x 2937 km, 32.9° (Epoch: 05 August)

Date Brightness Start Highest point End Pass type
(mag) Time Alt. Az. Time Alt. Az. Time Alt. Az.
06 Aug 10.9 19:14:18 10° S 19:18:55 12° SSE 19:21:15 11° SSE visible
06 Aug 11.3 21:22:01 10° SSW 21:22:41 12° SSW 21:22:41 12° SSW visible
07 Aug 10.7 19:29:44 10° SSW 19:37:54 17° SSE 19:38:28 17° SSE visible
07 Aug 11.3 21:39:17 10° SW 21:39:55 12° SW 21:39:55 12° SW visible
08 Aug 10.4 19:46:08 10° SSW 19:55:46 24° SSE 19:55:46 24° SSE visible
08 Aug 11.4 21:56:53 10° SW 21:57:13 11° SW 21:57:13 11° SW visible
09 Aug 10.2 20:03:01 10° SSW 20:13:10 31° S 20:13:10 31° S visible
10 Aug 10.8 18:10:30 10° SSW 18:20:04 18° SSE 18:27:57 10° ESE visible
10 Aug 10.0 20:20:13 10° SW 20:30:39 40° S 20:30:39 40° S visible
11 Aug 10.6 18:26:58 10° SSW 18:38:57 24° SSE 18:46:45 13° ESE visible
11 Aug 9.8 20:37:44 10° SW 20:48:13 47° SSW 20:48:13 47° SSW visible
12 Aug 10.3 18:43:49 10° SSW 18:57:36 32° SSE 19:04:24 20° ESE visible
12 Aug 9.8 20:55:33 10° SW 21:05:53 51° SW 21:05:53 51° SW visible
13 Aug 10.0 19:00:56 10° SW 19:16:02 42° SSE 19:22:07 27° E visible
13 Aug 9.9 21:13:42 10° WSW 21:23:36 48° WSW 21:23:36 48° WSW visible
14 Aug 9.8 19:18:20 10° SW 19:34:18 56° SSE 19:39:52 34° E visible
14 Aug 10.2 21:32:14 10° WSW 21:41:22 41° W 21:41:22 41° W visible
15 Aug 9.5 19:35:59 10° SW 19:52:25 73° SE 19:57:40 39° ENE visible
15 Aug 10.5 21:51:09 10° W 21:59:09 32° WNW 21:59:09 32° WNW visible
